[[{"header":{"parameterUnit":"m.s-1","parameterCategory":1,"la1":30.2991,"la2":30.254,"lo1":-89.0895,"lo2":-89.0444,"dy":0.0017,"dx":0.0017,"nx":28,"ny":28,"refTime":"2025-09-11T21:00:00:Z","depth":0,"parameterNumber":2,"parameterNumberName":"U-component_of_WINDS"},"data":[0,0,0,0,0,0,0,0,0,0,0,0,0,0,0,0,0,0,0,0,0,0,0,0,0,0,0,0,0,0,0,0,0,0,0,0,0,0,0,0,0,0,0,0,0,0,0,0,0,0,0,0,0,0,0,0,0,0,-2.9137,-2.9136,0,-2.9053,-2.9052,-2.9051,-2.8946,-2.8945,-2.8943,-2.8942,-2.8853,-2.8852,-2.8851,0,0,0,0,0,0,0,0,0,0,0,0,0,-2.9206,-2.9205,-2.9137,-2.9136,-2.9135,-2.9053,-2.9052,-2.9051,-2.8947,-2.8945,-2.8943,-2.8941,-2.8853,-2.8852,-2.8851,0,0,0,0,0,0,0,0,0,0,0,0,0,-2.9154,-2.9205,-2.9137,-2.9073,-2.9066,-2.9054,-2.9052,-2.9051,-2.8947,-2.8945,-2.8942,-2.894,-2.8854,-2.8852,-2.8851,-2.8894,0,0,-2.8847,-2.8847,0,0,0,0,0,0,0,0,-2.9157,-2.9152,-2.9083,-2.9077,-2.907,-2.9008,-2.9044,-2.8998,-2.8948,-2.8992,-2.8941,-2.8939,-2.8906,-2.8901,-2.889,-2.889,-2.8886,-2.8847,-2.8847,-2.8846,-2.8846,0,0,0,0,0,0,0,-2.9161,-2.9155,-2.9103,-2.9082,-2.9074,-2.9048,-2.9038,-2.9035,-2.8964,-2.8988,-2.898,-2.8972,-2.8902,-2.8892,-2.8887,-2.8884,-2.8847,-2.8846,-2.8846,-2.8845,-2.8918,-2.892,0,0,0,0,0,0,-2.9174,-2.9158,-2.9106,-2.9101,-2.9108,-2.9049,-2.9038,-2.903,-2.8964,-2.8952,-2.8974,-2.8968,-2.8895,-2.8889,-2.8884,-2.893,-2.8846,-2.8845,-2.8844,-2.8915,-2.8919,-2.8921,0,0,0,0,0,0,-2.9176,-2.9171,-2.9109,-2.9128,-2.9118,-2.9051,-2.9043,-2.903,-2.9019,-2.8954,-2.894,-2.8977,-2.8893,-2.8886,-2.8893,-2.8926,-2.8844,-2.8843,-2.8912,-2.8916,-2.892,-2.9024,0,0,0,0,0,0,-2.9179,-2.9172,-2.9187,-2.9129,-2.9117,-2.912,-2.9045,-2.903,-2.9018,-2.9008,-2.8952,-2.894,-2.889,-2.8895,-2.8892,-2.8923,-2.8842,-2.8909,-2.8914,-2.8919,-2.9017,-2.9031,-2.9043,0,0,0,0,0,-2.9181,-2.9218,-2.9188,-2.9182,-2.9135,-2.9122,-2.9115,-2.9058,-2.9021,-2.9036,-2.8994,-2.8942,-2.8924,-2.8897,-2.8892,-2.8923,-2.8906,-2.8913,-2.8918,-2.9011,-2.9028,-2.9042,0,0,0,0,0,0,-2.9279,-2.9209,-2.9175,-2.9194,-2.9165,-2.9104,-2.9121,-2.9077,-2.9057,-2.9048,-2.8977,-2.8966,-2.8982,-2.8953,-2.8925,-2.8963,-2.8908,-2.8913,-2.898,-2.8995,-2.9008,-2.9013,-2.8841,0,0,0,0,0,-2.9304,-2.93,-2.9238,-2.9261,-2.9249,-2.9188,-2.918,-2.9139,-2.9106,-2.9092,-2.9051,-2.902,-2.9008,-2.9,-2.8985,-2.9014,-2.9001,-2.9033,-2.9046,-2.9057,-2.9062,-2.9077,-2.9091,-2.8941,-2.8941,-2.8941,0,0,-2.9352,-2.9314,-2.9315,-2.928,-2.9252,-2.925,-2.9178,-2.9177,-2.9175,-2.9092,-2.9096,-2.9066,-2.9027,-2.9046,-2.9053,-2.9023,-2.9101,-2.9065,-2.9074,-2.9072,-2.9085,-2.9099,-2.9111,-2.8945,-2.8944,-2.8944,0,0,-2.944,-2.9411,-2.9427,-2.9403,-2.9363,-2.9324,-2.9329,-2.9275,-2.9252,-2.9257,-2.9195,-2.9192,-2.9171,-2.9147,-2.9132,-2.9217,-2.9169,-2.9214,-2.928,-2.9296,-2.9307,-2.9317,-2.9348,-2.936,-2.922,-2.922,-2.922,0,-2.9505,-2.9499,-2.9441,-2.9446,-2.9433,-2.9361,-2.9377,-2.9356,-2.9314,-2.9306,-2.9275,-2.925,-2.9219,-2.9232,-2.9254,-2.9244,-2.9247,-2.9218,-2.9311,-2.932,-2.9329,-2.9357,-2.9369,-2.9226,-2.9225,-2.9224,-2.9224,0,-2.9582,-2.958,-2.9598,-2.9561,-2.9551,-2.9561,-2.9505,-2.9502,-2.9464,-2.9428,-2.9435,-2.9396,-2.9372,-2.9373,-2.9334,-2.9382,-2.9365,-2.9324,-2.9266,-2.935,-2.9375,-2.9386,-2.9234,-2.9232,-2.923,-2.9229,0,0,-2.9724,-2.9659,-2.9666,-2.965,-2.9604,-2.9601,-2.961,-2.9589,-2.9588,-2.9563,-2.9569,-2.9556,-2.9519,-2.9502,-2.946,-2.9475,-2.9546,-2.9431,-2.9429,-2.9453,-2.9598,-2.9629,-2.9642,-2.9516,-2.9518,-2.9519,-2.9601,0,-2.9802,-2.9813,-2.9764,-2.9788,-2.9786,-2.972,-2.9728,-2.9702,-2.967,-2.9664,-2.9629,-2.9621,-2.9572,-2.9561,-2.9573,-2.9535,-2.9574,-2.9529,-2.952,-2.952,-2.953,-2.9655,-2.9686,-2.9765,-2.9611,-2.9612,-2.9614,0,-2.9893,-2.9876,-2.9901,-2.9857,-2.9854,-2.9862,-2.9841,-2.9836,-2.9806,-2.9782,-2.9767,-2.972,-2.9727,-2.9676,-2.9685,-2.9655,-2.965,-2.9631,-2.9633,-2.9627,-2.957,-2.9652,-2.9789,-2.98,-2.9629,-2.9627,-2.9626,0,-2.9994,-2.9977,-2.999,-2.9978,-2.9927,-2.9935,-2.9914,-2.9882,-2.9874,-2.9856,-2.985,-2.9833,-2.9823,-2.9812,-2.9763,-2.973,-2.9778,-2.9722,-2.9758,-2.976,-2.9768,-2.9768,-2.9904,-2.9769,-2.9768,-2.9768,-2.9768,0,-3.0085,-3.0103,-3.0035,-3.0043,-3.0062,-3.0006,-3.0026,-2.9999,-2.9972,-2.9974,-2.9917,-2.992,-2.9856,-2.9853,-2.9815,-2.9829,-2.9825,-2.9806,-2.9796,-2.981,-2.9813,-2.9803,-2.9796,-2.9771,-2.9771,-2.977,-2.9769,0,-3.0199,-3.0154,-3.0164,-3.0117,-3.0106,-3.0122,-3.0082,-3.0088,-3.0055,-3.0059,-3.0056,-3.0004,-2.9998,-2.995,-2.9932,-2.9907,-2.9934,-2.9914,-2.9945,-2.9937,-2.9976,-2.9973,-3.011,-3.0125,-2.9981,-2.9983,-2.9984,0,-3.0258,-3.0271,-3.0227,-3.0225,-3.0207,-3.0205,-3.0197,-3.0145,-3.0139,-3.0109,-3.0119,-3.0109,-3.0097,-3.009,-3.0051,-3.0038,-3.0016,-3.0065,-3.0013,-3.0028,-3.0016,-3.0015,-3.0016,-3.0075,-3.0077,-3.0078,-3.0079,0,-3.0369,-3.0348,-3.034,-3.0325,-3.0319,-3.0304,-3.0286,-3.0288,-3.023,-3.0228,-3.0222,-3.0213,-3.0197,-3.0188,-3.0169,-3.0148,-3.0105,-3.0097,-3.0105,-3.0118,-3.0135,-3.0126,-2.9973,-3.0093,-3.0092,-3.0091,-3.009,-3.0089,-3.0457,-3.0466,-3.0437,-3.0431,-3.0413,-3.0399,-3.0403,-3.0373,-3.0367,-3.035,-3.032,-3.0319,-3.0292,-3.0263,-3.0246,-3.0245,-3.0219,-3.023,-3.0232,-3.0236,-3.0244,-3.0139,-3.0242,-3.0241,-3.0241,-3.024,-3.024,0,-3.0564,-3.0544,-3.0539,-3.0518,-3.0514,-3.0476,-3.0456,-3.0455,-3.0455,-3.0434,-3.0425,-3.042,-3.0412,-3.0375,-3.0363,-3.0369,-3.0349,-3.0368,-3.0366,-3.0362,-3.0267,-3.0262,-3.0385,-3.0385,-3.0385,-3.0385,-3.0384,-3.0384,-3.062,-3.0633,-3.061,-3.0615,-3.0594,-3.0594,-3.0586,-3.0573,-3.0556,-3.0553,-3.0547,-3.0524,-3.0497,-3.0484,-3.0476,-3.0465,-3.0463,-3.0488,-3.0471,-3.0382,-3.0368,-3.0355,-3.0349,-3.0488,-3.0488,-3.0565,-3.0565,-3.0566]},{"header":{"parameterUnit":"m.s-1","parameterCategory":1,"la1":30.2991,"la2":30.254,"lo1":-89.0895,"lo2":-89.0444,"dy":0.0017,"dx":0.0017,"nx":28,"ny":28,"refTime":"2025-09-11T21:00:00:Z","depth":0,"parameterNumber":3,"parameterNumberName":"V-component_of_WINDS"},"data":[0,0,0,0,0,0,0,0,0,0,0,0,0,0,0,0,0,0,0,0,0,0,0,0,0,0,0,0,0,0,0,0,0,0,0,0,0,0,0,0,0,0,0,0,0,0,0,0,0,0,0,0,0,0,0,0,0,0,2.449,2.4491,0,2.452,2.4521,2.4521,2.454,2.454,2.454,2.454,2.457,2.457,2.4571,0,0,0,0,0,0,0,0,0,0,0,0,0,2.4447,2.4448,2.449,2.4491,2.4491,2.452,2.4521,2.4521,2.454,2.454,2.454,2.454,2.4569,2.457,2.4571,0,0,0,0,0,0,0,0,0,0,0,0,0,2.447,2.4448,2.449,2.4504,2.4505,2.452,2.4521,2.4521,2.454,2.454,2.454,2.454,2.4569,2.457,2.4571,2.4575,0,0,2.4575,2.4575,0,0,0,0,0,0,0,0,2.4469,2.4472,2.4501,2.4503,2.4505,2.4526,2.4517,2.4539,2.454,2.4526,2.454,2.454,2.4555,2.4557,2.4563,2.4576,2.4578,2.4575,2.4575,2.4576,2.4576,0,0,0,0,0,0,0,2.4467,2.4471,2.4502,2.4502,2.4504,2.4508,2.4511,2.4521,2.454,2.4528,2.4529,2.4532,2.4556,2.4562,2.4563,2.4578,2.4575,2.4576,2.4576,2.4577,2.4596,2.4595,0,0,0,0,0,0,2.4464,2.4469,2.4501,2.4503,2.4487,2.4509,2.4512,2.4519,2.454,2.4543,2.4532,2.4533,2.456,2.4562,2.4565,2.457,2.4576,2.4577,2.4577,2.4596,2.4596,2.4595,0,0,0,0,0,0,2.4463,2.4466,2.45,2.4487,2.4491,2.4509,2.4517,2.452,2.4525,2.4543,2.4546,2.4535,2.456,2.4563,2.4572,2.4571,2.4577,2.4578,2.4596,2.4596,2.4595,2.4581,0,0,0,0,0,0,2.4462,2.4466,2.4468,2.4487,2.4492,2.4507,2.4517,2.452,2.4527,2.4529,2.4546,2.4549,2.456,2.4571,2.4573,2.4573,2.4579,2.4596,2.4596,2.4596,2.4581,2.458,2.4579,0,0,0,0,0,2.446,2.4462,2.4468,2.4472,2.4495,2.4507,2.451,2.4523,2.4527,2.4529,2.454,2.4549,2.4571,2.4571,2.4575,2.4574,2.4596,2.4596,2.4596,2.4582,2.458,2.4579,0,0,0,0,0,0,2.4443,2.4465,2.4471,2.448,2.4492,2.451,2.4513,2.4521,2.4532,2.4533,2.4548,2.4552,2.4559,2.4568,2.4568,2.4579,2.4584,2.4585,2.4573,2.4571,2.457,2.4568,2.458,0,0,0,0,0,2.444,2.4449,2.4468,2.4474,2.4479,2.4495,2.4501,2.451,2.4523,2.4527,2.454,2.4551,2.4561,2.4566,2.4576,2.4583,2.4586,2.4584,2.4583,2.4582,2.4582,2.4585,2.4584,2.4594,2.4594,2.4594,0,0,2.4435,2.4448,2.4452,2.447,2.4481,2.4489,2.4499,2.4508,2.4514,2.4529,2.4538,2.4547,2.4561,2.4568,2.4572,2.4576,2.458,2.4581,2.458,2.4581,2.4585,2.4584,2.4583,2.4594,2.4594,2.4594,0,0,2.4429,2.444,2.4446,2.4455,2.4471,2.4481,2.4483,2.45,2.4507,2.4516,2.4528,2.4535,2.4551,2.4561,2.4567,2.4564,2.4572,2.4567,2.4561,2.4564,2.4563,2.4562,2.4561,2.456,2.4567,2.4567,2.4567,0,2.442,2.4433,2.4447,2.4455,2.4463,2.4477,2.4483,2.4491,2.4509,2.4513,2.4517,2.4537,2.4548,2.4557,2.4557,2.4562,2.4563,2.4565,2.4562,2.4561,2.4561,2.456,2.4559,2.4566,2.4567,2.4567,2.4567,0,2.4421,2.443,2.4433,2.445,2.4457,2.4464,2.4479,2.4485,2.4493,2.4503,2.4512,2.4525,2.4538,2.4541,2.4549,2.4552,2.4553,2.4559,2.4565,2.4559,2.4558,2.4558,2.4565,2.4566,2.4566,2.4566,0,0,2.4406,2.443,2.4431,2.4438,2.4456,2.4463,2.447,2.4482,2.4487,2.4498,2.4504,2.4518,2.4523,2.4531,2.454,2.4543,2.4539,2.4549,2.4549,2.4546,2.4542,2.4537,2.4537,2.4545,2.4545,2.4545,2.4541,0,2.4402,2.4416,2.4428,2.4437,2.4446,2.4459,2.4465,2.4476,2.4486,2.4494,2.4504,2.4513,2.452,2.4525,2.4528,2.4539,2.4539,2.454,2.455,2.455,2.4546,2.4536,2.4531,2.4527,2.4541,2.4541,2.4541,0,2.44,2.441,2.442,2.4437,2.4441,2.4446,2.4458,2.4466,2.4478,2.4485,2.4493,2.4503,2.4511,2.4516,2.4527,2.4527,2.4532,2.4538,2.4538,2.4539,2.4545,2.4537,2.4526,2.4525,2.454,2.454,2.454,0,2.4386,2.4404,2.4412,2.4418,2.4437,2.444,2.4449,2.4462,2.4468,2.4479,2.4483,2.4494,2.45,2.4508,2.4521,2.4524,2.4529,2.4536,2.4535,2.4534,2.4535,2.4535,2.4524,2.4539,2.4539,2.4539,2.4539,0,2.4381,2.4386,2.4406,2.4411,2.4417,2.4431,2.4437,2.4446,2.4458,2.4464,2.4477,2.4482,2.4498,2.4506,2.4516,2.4522,2.4525,2.453,2.4533,2.4529,2.4528,2.4532,2.4533,2.4539,2.4539,2.4539,2.4539,0,2.4367,2.4381,2.439,2.4408,2.4412,2.4416,2.4431,2.4436,2.4446,2.4454,2.4457,2.4472,2.4482,2.4495,2.4509,2.4515,2.452,2.4524,2.4516,2.4517,2.4515,2.4515,2.4507,2.4506,2.4521,2.4521,2.4521,0,2.4363,2.4367,2.4385,2.439,2.4398,2.4407,2.4413,2.4428,2.4434,2.4449,2.4452,2.4462,2.4471,2.4486,2.4498,2.4508,2.4513,2.4509,2.4514,2.451,2.4512,2.4511,2.4511,2.4508,2.4507,2.4507,2.4507,0,2.4353,2.4359,2.4368,2.438,2.4388,2.4397,2.4408,2.4411,2.4428,2.4434,2.4444,2.4451,2.4465,2.4475,2.4487,2.4495,2.4503,2.4505,2.4505,2.4501,2.4496,2.4498,2.4512,2.4505,2.4505,2.4506,2.4506,2.4506,2.4343,2.4347,2.4361,2.437,2.438,2.4389,2.4394,2.4405,2.4414,2.4426,2.4434,2.4443,2.4456,2.4472,2.448,2.4487,2.4491,2.4491,2.4491,2.4491,2.4489,2.4495,2.449,2.449,2.449,2.449,2.449,0,2.4333,2.4343,2.4351,2.4365,2.4373,2.4381,2.4392,2.4398,2.4406,2.4417,2.4426,2.4437,2.4447,2.446,2.447,2.4473,2.4478,2.4476,2.4475,2.4477,2.4486,2.4484,2.4472,2.4472,2.4472,2.4472,2.4472,2.4472,2.4329,2.4337,2.4345,2.4357,2.4366,2.4375,2.4381,2.4389,2.4398,2.441,2.4418,2.4427,2.4438,2.445,2.4459,2.4462,2.4465,2.4462,2.4467,2.4475,2.4476,2.4478,2.4477,2.4463,2.4463,2.4457,2.4457,2.4457]}]]